Location: Oberkirch
(48.5323°N, 8.0787°E)
Time: 20:34:33
(UTC+00:00)

Courier 1B - Visible Passes

Search period start: 15 February 2026 00:00
Search period end: 25 February 2026 00:00
Orbit: 962 x 1208 km, 28.3° (Epoch: 15 February)

Date Brightness Start Highest point End Pass type
(mag) Time Alt. Az. Time Alt. Az. Time Alt. Az.
17 Feb 9.8 19:52:33 10° SSW 19:53:42 12° S 19:53:42 12° S visible
18 Feb 9.7 19:00:01 10° S 19:02:21 12° SSE 19:03:16 11° SSE visible
19 Feb 9.7 19:57:29 10° SSW 19:59:42 14° S 19:59:42 14° S visible
20 Feb 9.6 19:04:20 10° SSW 19:07:47 14° S 19:09:14 13° SSE visible
21 Feb 9.7 18:11:34 10° S 18:14:12 12° SSE 18:16:52 10° SE visible
21 Feb 9.7 20:03:04 10° SW 20:05:38 14° SSW 20:05:38 14° SSW visible
22 Feb 9.6 19:09:35 10° SSW 19:13:15 15° S 19:15:08 13° SSE visible
23 Feb 9.7 18:16:21 10° SSW 18:19:40 14° S 18:23:04 10° SE visible
23 Feb 9.8 20:09:18 10° SW 20:11:32 13° SSW 20:11:32 13° SSW visible
24 Feb 9.7 19:15:28 10° SSW 19:18:46 14° S 19:21:03 12° SSE visible
